|
NORAD ID: 26203 Int'l Code: 1999-057CR
Perigee: 718.9 km
Apogee: 885.8 km
Inclination: 98.5 °
Period: 100.8 minutes
Semi major axis: 7173 km
Launch date: October 14, 1999
Source: People's Republic of China (PRC)
Note: This is SATELLITE DEBRIS
Two Line Element Set (TLE):
1 26203U 99057CR 13141.74006678 .00000485 00000-0 19399-3 0 533
2 26203 098.4552 059.0262 0116286 084.0686 310.5490 14.28960305686301
Source:
NASA's NSSDC Master Catalog entry for CZ-4 DEB
|